GW3733 Weather Reports


time (UTC)temp
C
wind
direction
speed
KPH
gust
KPH
rain 1hr
cm
rain 24hr
cm
rain mn
cm
humidity
%
barometer
mb
20260505000644 18 357 0.0 0.0 0.00 0.00 0.00 56 1005.3
20260505000142 19 66 3.2 3.2 0.00 0.00 0.00 52 1005.3
20260504235638 19 3 0.0 0.0 0.00 0.00 0.00 57 1005.5
20260504235134 20 357 0.0 0.0 0.00 0.00 0.00 56 1005.1
20260504234632 20 344 0.0 1.6 0.00 0.00 0.00 56 1005.1
20260504234129 20 359 0.0 0.0 0.00 0.00 0.00 61 1005.3
20260504233625 20 352 0.0 0.0 0.00 0.00 0.00 56 1005.1
20260504233121 20 11 0.0 0.0 0.00 0.00 0.00 58 1005.0
20260504232619 20 3 0.0 0.0 0.00 0.00 0.00 51 1005.2
20260504232116 20 356 0.0 0.0 0.00 0.00 0.00 53 1005.1
20260504231612 21 336 0.0 1.6 0.00 0.00 0.00 56 1005.0
20260504231108 21 321 1.6 3.2 0.00 0.00 0.00 49 1005.1
20260504230604 21 359 0.0 0.0 0.00 0.00 0.00 49 1004.9
20260504230104 21 307 3.2 4.8 0.00 0.00 0.00 45 1005.0
20260504225601 22 280 1.6 3.2 0.00 0.00 0.00 44 1005.3
20260504225057 22 352 3.2 3.2 0.00 0.00 0.00 46 1004.9
20260504224554 22 12 0.0 1.6 0.00 0.00 0.00 44 1005.0
20260504224051 22 300 0.0 1.6 0.00 0.00 0.00 44 1004.9
20260504223548 22 354 0.0 0.0 0.00 0.00 0.00 44 1005.1
20260504223044 22 1 0.0 0.0 0.00 0.00 0.00 45 1005.1
20260504222541 22 353 0.0 0.0 0.00 0.00 0.00 43 1004.8
20260504222038 22 358 1.6 1.6 0.00 0.00 0.00 41 1004.8
20260504221535 22 348 0.0 0.0 0.00 0.00 0.00 43 1004.8
20260504221032 23 351 3.2 3.2 0.00 0.00 0.00 41 1004.8
20260504220529 23 342 0.0 1.6 0.00 0.00 0.00 44 1004.8
20260504220026 23 358 0.0 1.6 0.00 0.00 0.00 43 1004.8
20260504215522 23 330 0.0 0.0 0.00 0.00 0.00 42 1004.8
20260504215020 23 211 6.4 9.7 0.00 0.00 0.00 39 1004.4
20260504214516 24 305 3.2 4.8 0.00 0.00 0.00 40 1004.7
20260504214012 24 282 1.6 3.2 0.00 0.00 0.00 38 1004.7
20260504213508 24 310 3.2 4.8 0.00 0.00 0.00 38 1004.4
20260504213006 24 340 0.0 0.0 0.00 0.00 0.00 39 1004.4
20260504212501 25 328 3.2 4.8 0.00 0.00 0.00 37 1004.5
20260504211959 25 303 1.6 1.6 0.00 0.00 0.00 37 1004.1
20260504211455 24 322 0.0 0.0 0.00 0.00 0.00 40 1004.7
20260504210953 24 335 6.4 9.7 0.00 0.00 0.00 36 1004.3
20260504210450 24 316 0.0 1.6 0.00 0.00 0.00 38 1004.7
20260504205947 24 308 1.6 3.2 0.00 0.00 0.00 38 1004.3
20260504205444 23 81 3.2 6.4 0.00 0.00 0.00 37 1004.3
20260504204942 24 6 0.0 1.6 0.00 0.00 0.00 39 1004.3
20260504204440 25 300 1.6 3.2 0.00 0.00 0.00 37 1004.2
20260504203939 25 315 1.6 1.6 0.00 0.00 0.00 36 1004.3
20260504203436 24 339 0.0 0.0 0.00 0.00 0.00 38 1004.5
20260504202932 23 314 6.4 6.4 0.00 0.00 0.00 37 1004.4
20260504202429 23 359 0.0 1.6 0.00 0.00 0.00 37 1004.7
20260504201926 23 341 1.6 1.6 0.00 0.00 0.00 36 1004.5
20260504201423 23 342 3.2 4.8 0.00 0.00 0.00 38 1004.5
20260504200921 23 329 3.2 4.8 0.00 0.00 0.00 39 1004.7
20260504200417 25 288 3.2 3.2 0.00 0.00 0.00 35 1004.7
20260504195914 23 209 3.2 4.8 0.00 0.00 0.00 37 1004.8
20260504195409 24 337 1.6 1.6 0.00 0.00 0.00 37 1004.9
20260504194907 25 311 3.2 3.2 0.00 0.00 0.00 36 1005.1
20260504194402 24 2 1.6 3.2 0.00 0.00 0.00 35 1005.1
20260504193858 23 359 4.8 4.8 0.00 0.00 0.00 38 1005.2
20260504193356 23 4 0.0 0.0 0.00 0.00 0.00 37 1005.3
20260504192855 23 280 6.4 6.4 0.00 0.00 0.00 37 1005.5
20260504192352 22 331 1.6 1.6 0.00 0.00 0.00 37 1005.3
20260504191850 22 274 3.2 3.2 0.00 0.00 0.00 38 1005.4
20260504191348 22 328 1.6 3.2 0.00 0.00 0.00 37 1005.5
20260504190843 22 10 0.0 1.6 0.00 0.00 0.00 40 1005.6
20260504190339 22 322 3.2 3.2 0.00 0.00 0.00 39 1005.7
20260504185836 22 15 0.0 1.6 0.00 0.00 0.00 38 1005.9
20260504185333 22 48 3.2 4.8 0.00 0.00 0.00 39 1006.0
20260504184829 22 355 0.0 1.6 0.00 0.00 0.00 39 1006.1
20260504184325 22 321 1.6 3.2 0.00 0.00 0.00 38 1005.9
20260504183820 22 13 4.8 6.4 0.00 0.00 0.00 38 1006.1
20260504183318 23 346 1.6 3.2 0.00 0.00 0.00 35 1005.9
20260504182816 23 38 1.6 1.6 0.00 0.00 0.00 38 1006.0
20260504182313 23 335 3.2 4.8 0.00 0.00 0.00 35 1005.9
20260504181810 23 272 1.6 1.6 0.00 0.00 0.00 34 1005.8
20260504181307 23 231 6.4 6.4 0.00 0.00 0.00 34 1005.9
20260504180806 23 252 6.4 6.4 0.00 0.00 0.00 36 1006.1
20260504180305 23 329 4.8 4.8 0.00 0.00 0.00 40 1006.2
20260504175802 23 281 6.4 6.4 0.00 0.00 0.00 34 1006.5
20260504175259 23 336 1.6 1.6 0.00 0.00 0.00 35 1006.3
20260504174757 23 210 3.2 3.2 0.00 0.00 0.00 39 1006.4
20260504174254 23 125 3.2 3.2 0.00 0.00 0.00 39 1006.5
20260504173750 23 292 6.4 6.4 0.00 0.00 0.00 35 1006.5
20260504173248 23 337 3.2 3.2 0.00 0.00 0.00 36 1006.3
20260504172744 23 352 1.6 1.6 0.00 0.00 0.00 43 1006.7
20260504172241 22 320 1.6 1.6 0.00 0.00 0.00 40 1006.7
20260504171737 22 334 3.2 4.8 0.00 0.00 0.00 37 1006.8
20260504171234 23 284 1.6 1.6 0.00 0.00 0.00 35 1006.8
20260504170731 22 314 3.2 3.2 0.00 0.00 0.00 35 1007.1
20260504170229 23 296 4.8 4.8 0.00 0.00 0.00 40 1007.1
20260504160147 20 338 6.4 6.4 0.00 0.00 0.00 42 1008.2
20260504151114 20 116 4.8 6.4 0.00 0.00 0.00 37 1008.6
20260504150612 20 79 1.6 3.2 0.00 0.00 0.00 40 1008.5
20260504150109 20 277 3.2 4.8 0.00 0.00 0.00 45 1008.4
20260504141037 18 10 0.0 1.6 0.00 0.00 0.00 41 1008.5
20260504140534 18 35 1.6 1.6 0.00 0.00 0.00 41 1008.6
20260504130458 16 331 3.2 3.2 0.00 0.00 0.00 47 1009.1
20260504110345 5 8 0.0 0.0 0.00 0.00 0.00 89 1009.6
20260504100303 5 10 0.0 0.0 0.00 0.00 0.00 92 1009.9
20260504081656 4 11 0.0 0.0 0.00 0.00 0.00 87 1010.2
20260504081152 5 11 0.0 0.0 0.00 0.00 0.00 88 1010.2
20260504080649 4 11 0.0 0.0 0.00 0.00 0.00 88 1010.2
20260504080145 4 11 0.0 0.0 0.00 0.00 0.00 88 1010.0
20260504070114 3 11 0.0 0.0 0.00 0.00 0.00 90 1010.3
20260504050502 1 11 0.0 0.0 0.00 0.00 0.00 95 1011.5
20260504045959 1 11 0.0 0.0 0.00 0.00 0.00 96 1011.3
20260504045455 1 11 0.0 0.0 0.00 0.00 0.00 95 1011.2
20260504044951 0 11 0.0 0.0 0.00 0.00 0.00 95 1011.1
20260504044449 0 11 0.0 0.0 0.00 0.00 0.00 95 1011.2
20260504043946 0 11 0.0 0.0 0.00 0.00 0.00 95 1011.4
20260504043443 1 11 0.0 0.0 0.00 0.00 0.00 94 1011.2
20260504042940 1 11 0.0 0.0 0.00 0.00 0.00 94 1011.2
20260504042436 1 11 0.0 0.0 0.00 0.00 0.00 94 1011.2
20260504041933 1 11 0.0 0.0 0.00 0.00 0.00 94 1011.0
20260504041429 1 11 0.0 0.0 0.00 0.00 0.00 93 1011.4
20260504040925 1 11 0.0 0.0 0.00 0.00 0.00 93 1011.4
20260504040424 1 11 0.0 0.0 0.00 0.00 0.00 93 1011.4
20260504035919 1 11 0.0 0.0 0.00 0.00 0.00 93 1011.3
20260504035417 1 11 0.0 0.0 0.00 0.00 0.00 93 1011.5
20260504034913 1 11 0.0 0.0 0.00 0.00 0.00 93 1011.6
20260504034411 1 12 0.0 0.0 0.00 0.00 0.00 93 1011.5
20260504033908 1 12 0.0 0.0 0.00 0.00 0.00 93 1011.3
20260504033406 1 12 0.0 0.0 0.00 0.00 0.00 93 1011.2
20260504032902 1 11 0.0 0.0 0.00 0.00 0.00 92 1011.1
20260504032359 1 12 0.0 0.0 0.00 0.00 0.00 91 1011.2
20260504031856 2 12 0.0 0.0 0.00 0.00 0.00 90 1011.2
20260504031353 2 12 0.0 0.0 0.00 0.00 0.00 90 1011.1
20260504030849 2 12 0.0 0.0 0.00 0.00 0.00 88 1011.3
20260504030347 2 12 0.0 0.0 0.00 0.00 0.00 87 1011.1
20260504025843 2 12 0.0 0.0 0.00 0.00 0.00 88 1011.3
20260504025340 3 12 0.0 0.0 0.00 0.00 0.00 87 1011.3
20260504024836 3 13 0.0 0.0 0.00 0.00 0.00 84 1011.2
20260504024333 3 14 0.0 0.0 0.00 0.00 0.00 84 1011.4
20260504023830 3 1 0.0 0.0 0.00 0.00 0.00 86 1011.1
20260504023327 3 1 0.0 1.6 0.00 0.00 0.00 85 1011.1
20260504022822 3 2 0.0 0.0 0.00 0.00 0.00 84 1011.2
20260504022319 3 1 0.0 0.0 0.00 0.00 0.00 84 1011.2
20260504021816 3 1 0.0 0.0 0.00 0.00 0.00 85 1011.2
20260504021314 3 1 0.0 0.0 0.00 0.00 0.00 85 1011.3
20260504020810 3 7 0.0 0.0 0.00 0.00 0.00 86 1011.0
20260504020307 3 9 0.0 0.0 0.00 0.00 0.00 83 1011.1
20260504015803 3 345 1.6 1.6 0.00 0.00 0.00 84 1011.1
20260504015259 3 357 0.0 0.0 0.00 0.00 0.00 82 1011.0
20260504014755 4 357 0.0 0.0 0.00 0.00 0.00 83 1010.9
20260504014252 4 357 0.0 0.0 0.00 0.00 0.00 83 1010.9
20260504013749 4 356 0.0 0.0 0.00 0.00 0.00 84 1011.0
20260504013247 4 357 0.0 0.0 0.00 0.00 0.00 83 1010.6
20260504012743 5 358 0.0 0.0 0.00 0.00 0.00 81 1010.8
20260504012241 5 3 0.0 0.0 0.00 0.00 0.00 79 1010.6
20260504011738 5 2 0.0 0.0 0.00 0.00 0.00 82 1010.6
20260504011235 5 0 0.0 0.0 0.00 0.00 0.00 83 1010.5
20260504010731 5 350 0.0 0.0 0.00 0.00 0.00 83 1010.3
20260504010226 5 350 0.0 0.0 0.00 0.00 0.00 79 1010.4
20260504005723 5 350 0.0 0.0 0.00 0.00 0.00 81 1010.3
20260504005220 5 350 0.0 0.0 0.00 0.00 0.00 79 1010.3
20260504004718 6 350 0.0 0.0 0.00 0.00 0.00 76 1010.5
20260504004215 6 350 0.0 0.0 0.00 0.00 0.00 76 1010.3
20260504003712 6 350 0.0 0.0 0.00 0.00 0.00 71 1010.5
20260504003208 7 350 0.0 0.0 0.00 0.00 0.00 70 1010.2
20260504002705 7 350 0.0 0.0 0.00 0.00 0.00 71 1010.2
20260504002202 7 350 0.0 0.0 0.00 0.00 0.00 67 1010.1
20260504001700 8 350 0.0 0.0 0.00 0.00 0.00 67 1010.3
20260504001156 9 349 0.0 0.0 0.00 0.00 0.00 65 1010.3